Regional Weather Roundup
Issued by NWS Wakefield, VA

Home | Current Version | Previous Version | Graphics & Text | Print | Product List | Glossary On
Versions: 1 2 3 4 5 6 7 8 9 10 11 12 13 14 15 16 17 18 19 20 21 22 23 24 25 26 27 28
000
ASUS41 KAKQ 181615
RWRAKQ

REGIONAL WEATHER ROUNDUP
NATIONAL WEATHER SERVICE WAKEFIELD VA
1200 PM EDT WED OCT 18 2017

Note: "fair" indicates few or no clouds below 12,000 feet with no
significant weather and/or obstructions to visibility. * = Denotes
station may not report precipitation (e.g., rain,snow,etc.),
thunder or fog.

VAZ042-051-052>054-056-181700-
NORTHERN VIRGINIA

CITY           SKY/WX    TMP DP  RH WIND       PRES   REMARKS
WASH NATIONAL  SUNNY     63  46  54 S7        30.41R
DULLES         SUNNY     65  42  43 CALM      30.40S
FORT BELVOIR   SUNNY     65  44  47 S5        30.40S
QUANTICO       SUNNY     60  48  64 S3        30.42S
FREDERICKSBRG* SUNNY     64  42  44 SW5       30.40S
STAFFORD*      SUNNY     63  41  44 CALM      30.45S
WARRENTON      SUNNY     66  36  32 CALM      30.40S
CULPEPER*      SUNNY     67  38  34 CALM      30.42R
MANASSAS*      SUNNY     64  41  42 CALM      30.41S
LEESBURG*      SUNNY     66  46  48 W3        30.41R
WINCHESTER     SUNNY     61  39  44 SW3       30.40S
FRONT ROYAL*   SUNNY     61  41  48 W3        30.39S
LURAY*         SUNNY     61  43  51 CALM      30.40F
$$

VAZ048-049-060>072-079>083-181700-
CENTRAL AND SOUTH CENTRAL VIRGINIA

CITY           SKY/WX    TMP DP  RH WIND       PRES   REMARKS
RICHMOND       MOSUNNY   64  40  41 NW3       30.42S
CHESTERFIELD*  NOT AVBL
PETERSBURG*    SUNNY     61  36  40 CALM      30.42F
HANOVER        SUNNY     62  37  39 VRB3      30.43S
TAPPAHANNOCK*  SUNNY     64  30  27 CALM      30.42S
QUINTON*       FAIR      60  40  48 CALM      30.42S
CHARLOTTSVILLE SUNNY     65  44  46 S3        30.41S
GORDONSVILLE*  SUNNY     64  42  45 CALM      30.40S
ORANGE*        SUNNY     63  41  45 CALM      30.41S
LOUISA*        SUNNY     63  41  45 W5        30.41S
BUMPASS*       FAIR      62  41  45 CALM      30.41S
FARMVILLE*     SUNNY     64  39  39 CALM      30.41S
CREWE*         FAIR      61  39  44 CALM      30.42S
FORT PICKETT*  FAIR      61  38  43 CALM      30.42S
CHASE CITY*    FAIR      62  37  39 SE6       30.42S
CLARKSVILLE*   FAIR      61  41  48 CALM      30.42S
SOUTH HILL*    SUNNY     60  39  46 E5        30.47S
LAWRENCEVILLE* FAIR      62  33  33 E6        30.41F
EMPORIA*       SUNNY     61  43  51 N6        30.43S
$$

VAZ088>098-181700-
SOUTHEAST VIRGINIA

CITY           SKY/WX    TMP DP  RH WIND       PRES   REMARKS
NORFOLK        SUNNY     66  50  56 NE9       30.40R
VIRGINIA BEACH MOSUNNY   64  44  48 E9        30.39S
NORFOLK NAVAL  MOSUNNY   66  48  52 VRB7      30.41S
WEST POINT*    SUNNY    N/A N/A N/A SW5       30.43S
SALUDA*        FAIR      60  50  69 CALM      30.41S
NEWPORT NEWS   SUNNY     64  43  46 E8        30.41S
LANGLEY AFB    SUNNY     65  36  35 E8        30.40S
FORT EUSTIS    SUNNY     68  42  39 NE6       30.39R
WILLIAMSBURG*  SUNNY     66  48  52 CALM      30.42S
HR EXEC AP*    NOT AVBL
FRANKLIN*      SUNNY     62  47  56 NE5       30.41F
US460-WAKEFLD  SUNNY     63  46  54 VRB5      30.42S
$$

VAZ020-022-025-037-045-181700-
WEST CENTRAL AND SOUTHWEST VIRGINIA

CITY           SKY/WX    TMP DP  RH WIND       PRES   REMARKS
STAUNTON*      SUNNY     59  40  50 CALM      30.43S
WAYNESBORO*    SUNNY     62  41  47 S5        30.41S
HOT SPRINGS VA SUNNY     55  31  40 SE8       30.42S
LYNCHBURG      SUNNY     60  39  45 VRB3      30.42R
DANVILLE       SUNNY     61  41  47 CALM      30.42S
SOUTH BOSTON*  FAIR      62  38  40 CALM      30.42S
MARTINSVILLE   SUNNY     60  40  49 CALM      30.44S
ROANOKE        SUNNY     59  42  53 CALM      30.43S
BLACKSBURG     SUNNY     57  44  60 CALM      30.44S
DUBLIN*        SUNNY     56  45  64 CALM      30.42S
MARION*        SUNNY     60  40  47 E6        30.42S
HILLSVILLE*    SUNNY     57  38  48 CALM      30.40R
RICHLANDS*     FAIR      60  11  14 SW5       30.38S
WISE*          SUNNY     61  43  51 W3        30.38S
ABINGDON*      SUNNY     62  42  49 CALM      30.39S
$$

MDZ021>025-VAZ099-100-181700-
SOUTHERN MARYLAND AND THE DELMARVA PENINSULA

CITY           SKY/WX    TMP DP  RH WIND       PRES   REMARKS
PATUXENT RIVER SUNNY     64  44  48 SW5       30.40S
BAY BRIDGE APT SUNNY     61  45  55 W5        30.39S
LEONARDTOWN    NOT AVBL
DOVER          SUNNY     66  45  45 W6        30.36S
GEORGETOWN     SUNNY     65  44  46 VRB5      30.39S
EASTON         SUNNY     66  39  37 W6        30.43R
CAMBRIDGE      SUNNY     64  45  48 VRB5      30.40S
SALISBURY      SUNNY     64  46  52 SW5       30.39S
OCEAN CITY     SUNNY     63  44  50 VRB5      30.40S
WALLOPS ISLAND SUNNY     64  35  34 NW3       30.41S
ACCOMACK*      SUNNY     65  37  35 CALM      30.40S
$$

NCZ012>017-030>032-181700-
NORTH CENTRAL AND EASTERN NORTH CAROLINA

CITY           SKY/WX    TMP DP  RH WIND       PRES   REMARKS
ROANOKE RAPIDS FAIR      61  46  59 CALM      30.41S
RALEIGH        MOSUNNY   61  38  42 NE10      30.41S
ELIZABETH CITY MOSUNNY   67  52  58 NE13      30.39R
AHOSKIE*       SUNNY     61  48  63 NE6       30.41R
EDENTON*       SUNNY     67  53  61 NE5       30.39R
CURRITUCK*     SUNNY     65  51  60 NE6       30.40R
KILL DEVIL HLS SUNNY     66  51  57 CALM      30.36R
MANTEO         SUNNY    N/A N/A N/A E15       30.37R
CAPE HATTERAS  MOSUNNY   71  58  63 NE8G16    30.33S
TARBORO*       NOT AVBL
GOLDSBORO      SUNNY     64  48  57 NE8G17    30.37S
WASHINGTON     MOSUNNY   65  52  62 NE7       30.38S
GREENVILLE     SUNNY     63  50  63 E9        30.39R
NEW BERN       SUNNY     67  54  63 NE9       30.37S
WILMINGTON     SUNNY     69  53  56 NE13      30.34S
$$

VAZ048-181700-
ELSEWHERE

CITY           SKY/WX    TMP DP  RH WIND       PRES   REMARKS
HARRISBURG PA  SUNNY     61  45  55 W5        30.36F
BALTIMORE      SUNNY     68  43  40 SW5       30.38S
ANNAPOLIS      SUNNY     64  48  56 CALM      30.39S
ANDREWS AFB    SUNNY     65  43  43 CALM      30.39R
PHILADELPHIA   SUNNY     65  43  44 VRB3      30.36S
HENDERSON NC   SUNNY     58  37  46 NE7       30.42S
GREENSBORO     MOSUNNY   61  39  44 VRB3      30.40S
ROCKY MOUNT    SUNNY     63  48  58 E8        30.40S
$$

VAZ100-181700-
MARINE

STATION/POSITION TIME  TEMP    WIND        PRES    WAVE   SWELL
                       AIR SEA DIR/SP/G            HT/PER HT/PER
                 (UTC) (F)     (DEG/KT/KT) (MB)    (FT/S) (FT/S)
BRANDYWINE LGT   1542   61     260/ 10/ 11 1028.9S
CAPE MAY NJ      1548   60 65  270/  8/  9 1028.2S
LEWES DE         1542   62 64  300/  6/  7 1028.5S
15NM E FENWICK I 1550   60 68  270/  6/  8 1029.4S   2/10   2/10
OCEAN-CITY-INLET 1542   61 66  250/  3/  4 1029.5S
WACHAPREAGUE VA  1542   62 62   60/  3/  6 1029.6R
THOMAS POINT MD  1600   60 68  210/  4/  5   N/A
GOOSES REEF MD   1600   62 69  300/  6/  8 1035.4    1
COVE POINT MD    1542   63     270/  2/  4 1030.1R
SOLOMONS ISLAND  1542   63 69  270/  2/  5 1029.2S
BISHOPS HEAD MD  1542   59 60  260/  4/  5 1029.9R
PINEY POINT MD   1548          300/  2/  2   N/A
POTOMAC MD       1600   59 69  280/  6/  8 1029.2    1
CAMBRIDGE MD     1542   66 67              1030.0S
LEWISETTA VA     1542   60 64  260/  2/  3 1029.7R
RAPPAHANNOCK LGT 1548          320/  3/  4 1030.4R
STINGRAY PT      1600   61 69  330/  2/  4 1030.2    1
YORK RVR RNG VA  1542   60      CALM  /  2 1030.4R
YORKTOWN VA      1542   61 70   70/  4/  5 1029.6R
JAMESTOWN VA     1600      71  230/  2/  6   N/A     0
DOMINION TERM VA 1542   63      50/  3/  5 1029.8R
KIPTOPEKE VA     1542      65   40/  5/  9   N/A
CAPE HENRY VA    1542   63      70/ 10/ 13   N/A
WILLOUBY STN VA  1542   61      40/  8/ 11 1029.5R
S CRANEY ISL VA  1542   62      80/  7/ 10 1029.2R
CAPE HENRY BUOY  1600      70                N/A     3/11   2/11
1ST LANDING BUOY 1600   62 69              1029.5    1/ 3
CAPE CHARLES BUO 1551      70                N/A     3/10   2/11
64NM E OF VA BCH 1550   63 67   40/ 12/ 16 1028.9R   5/ 8   3/ 8
DUCK PIER NC     1542   64 68   40/ 14/ 16 1028.2R
44100 DUCK FRF   1535      71                N/A     4/ 7   2/11
44056 DUCK FRF   1600      70                N/A     4/10   2/11
OREGON INLET NC  1542   66 64   40/ 13/ 18 1027.8R
HATTERAS NC      1542   66 67   30/ 13/ 18 1027.2R
DIAMOND SHLS NC  1550   69 82   20/ 19/ 23 1026.0R   6/ 9   3/ 9
CAPE LOOKOUT NC  1600   67      30/ 18/ 21 1026.7R
$$




USA.gov is the U.S. government's official web portal to all federal, state and local government web resources and services.